Location: Quaker Farms
(41.4276°N, 73.1557°W)
Time: 21:15:57
(UTC+00:00)

S-56A Canister/Altair - Pass Details

Date: 20 June 2021
Orbit: 631 x 2501 km, 38.9° (Epoch: 30 July)

Event Time Altitude Azimuth Distance (km) Brightness Sun altitude
Rises 08:19:08 0° 220° (SW) 3,078 - -9.7°
Exits shadow 08:21:57 10° 206° (SSW) 2,054 9.1 -9.3°
Reaches altitude 10° 08:21:57 10° 206° (SSW) 2,054 9.1 -9.3°
Maximum altitude 08:25:33 23° 152° (SSE) 1,333 8.6 -8.8°
Drops below altitude 10° 08:29:07 10° 99° (E) 2,047 10.3 -8.3°
Sets 08:31:56 0° 85° (E) 3,064 11.6 -7.9°
